Showing default

INTELSAT 39, 44476

Orbit data source: Space-Track

INTELSAT 39, 44476 is a payload satellite owned by Intelsat SA (US) (US) in GEO that was launched on Tue, 06 Aug 2019 UTC via an ARIANE 5ECA+ launch vehicle from the French Guiana (FRGUI). Payload-class satellites include a variety of spacecraft equipped with specific instruments for various scientific and technological missions. These include communications satellites like Starlink; space stations such as the ISS; scientific satellites like the Hubble; Earth observation satellites from companies like Planet Labs, Umbra, and HawkEye 360; GPS; miniature CubeSats for education and research; and military/defense satellites.

Not visible in the next 10 days
Identifier
44476, 2019-049B
Orbit
GEO
Country
Flag of UnknownUnknown / ITSO
Related business
Manufacturer
Maxar Space Sol
Mission
Operational Commercial Communications
Bus & Motor
LS-1300, R-4D
Mass
6,600 kg wet, ~3,000 kg dry
Launch date (UTC)
2019-08-06 (6 years ago)
Launch vehicle
ARIANE 5ECA+
Launch site
French Guiana (FRGUI)
Object type
Payload
Rocket body
Debris
Shape & HBR
Box + 2 Pan, 13.1 m
Radar Cross Section
98.259 m², Large (>1 m²)

Expand to show TLE details & history
Last TLE update: 5 hours ago

TLE from 5 hours ago
0 INTELSAT 39
1 44476U 19049B   25308.48538979  .00000046  00000-0  00000+0 0  9998
2 44476   0.0126 270.3136 0000508 246.3253 124.0557  1.00268518 22870
Epoch: 2025-11-04T11:38Z
TLE epoch observation values (Epoch: 2025-11-04T11:38:57.677Z)
Latitude
0.01043°
Longitude
61.9477°
Altitude
35,788.186 km
Speed
3.075 km/s
True Right ascension
18h 42m 38s
True Declination
0° 00' 38"
Sunlit
Object was in daylight at epoch
Visualization orbit readout
Latitude
Unknown
Longitude
Unknown
Altitude
Unknown
Speed
Unknown
Apparent Right ascension
Unknown
Apparent Declination
Unknown
Sunlit
N/A
Visualization observer readout
Local Sidereal Time
12:56:04
Azimuth
Unknown
Elevation
Unknown
Doppler factor
Unknown
Orbital elements
Apogee altitude
35,790.723 km
Perigee altitude
35,786.439 km
Semi-major axis
42,166.718 km
Eccentricity
0.00005
Inclination
0.0126°
RAAN
270.3136°
Arg. of periapsis
246.3253°
True anomaly
124.06052°
Mean anomaly
124.0557°
Eccentric anomaly
124.05811°
Mean motion
0.25066 °/min
Orbital period
1,436.2 mins
BSTAR
0
Loading maneuver chart data...
Computing Atmospheric mass density...
Loading historical data...
Loading historical data...
Loading historical data...
Loading historical data...
Loading historical data...
Loading historical data...
Loading historical data...
Other satellites on launch #49 in the year 2019 (2019-08-06 UTC)

Documentation

Showing up to 5 results
|